Atordoar
| Nome | Atordoar |
|---|---|
| Padrão | Stun |
| Tipo | Instantâneo |
| Descrição | Alvo criatura não pode bloquear neste turno. Compre um card. |
| Sabor | "Felizmente, os tritões não estão acostumados a oponentes com dois pés." — Gerrard do Bons Ventos |
| Artista | Terese Nielsen |
| Edição | Tempestade Remasterizada #163 |
| Papel de parede | |
| Imagem |
Sobre Atordoar
Atordoar, Instantâneo, desenhada por Terese Nielsen lançada primeiramente em outubro de 1997 na edição Tempest e foi impressa exatamente em 4 formas diferentes. Está atualmente sendo vendida pelo menor preço de € 0,31.
Um deck vermelho agressivo focado em dano rápido a criaturas se beneficiaria com o uso de Stun em Magic: the Gathering. Embora o Atordoamento possa ser útil para interromper a estratégia de bloqueio do oponente e fornecer a compra de cartas, existem alternativas melhores, como Choque ou Relâmpago, que oferecem dano direto a criaturas ou jogadores. Atordoar pode ser um jogo situacional em decks em busca de compra de cartas adicionais e interrupção temporária, mas pode não ser a melhor escolha em ambientes competitivos.
Regras
04/10/2004
Must be used before blockers are declared in order to affect blocking decisions. You can’t wait to see what your opponent declares and then try to stop them.
Onde comprar
![]() | Card Kingdom | 112 uni.
| € 1,82 | Visitar loja |
![]() | Ebay.com | Visitar loja | ||
![]() | Cardkingdom | Visitar loja |
*Este site contém links afiliados pelos quais podemos ser compensados
Agrupar
Alerta de preço ?
Me alerte quando o preço chegar em
Histórico de tendências de preços

Histórico de preço
| Data | Preço mínimo | Preço médio | Decks |
|---|---|---|---|
| 2024-09-05 | 0.14 EUR | 0.29 EUR | 0 |
| 2024-09-09 | 0.14 EUR | 0.30 EUR | 0 |
| 2024-09-16 | 0.14 EUR | 0.30 EUR | 0 |
| 2024-09-23 | 0.14 EUR | 0.30 EUR | 0 |
| 2024-09-30 | 0.14 EUR | 0.30 EUR | 0 |
| 2024-10-07 | 0.14 EUR | 0.28 EUR | 2 |
| 2024-10-14 | 0.14 EUR | 0.29 EUR | 1 |
| 2024-10-21 | 0.14 EUR | 0.29 EUR | 1 |
| 2024-10-28 | 0.14 EUR | 0.29 EUR | 0 |
| 2024-11-06 | 0.14 EUR | 0.29 EUR | 0 |
| 2024-11-11 | 0.14 EUR | 0.29 EUR | 0 |
| 2024-11-18 | 0.14 EUR | 0.29 EUR | 0 |
| 2024-11-25 | 0.14 EUR | 0.29 EUR | 0 |
| 2024-12-02 | 0.14 EUR | 0.30 EUR | 0 |
| 2024-12-09 | 0.14 EUR | 0.30 EUR | 0 |
| 2024-12-19 | 0.14 EUR | 0.30 EUR | 0 |
| 2024-12-23 | 0.14 EUR | 0.30 EUR | 0 |
| 2024-12-30 | 0.14 EUR | 0.30 EUR | 0 |
| 2025-01-01 | 0.14 EUR | 0.30 EUR | 0 |
| 2025-01-06 | 0.14 EUR | 0.30 EUR | 0 |
| 2025-01-13 | 0.14 EUR | 0.30 EUR | 1 |
| 2025-01-20 | 0.14 EUR | 0.30 EUR | 0 |
| 2025-01-27 | 0.14 EUR | 0.30 EUR | 0 |
| 2025-02-03 | 0.14 EUR | 0.30 EUR | 0 |
| 2025-02-10 | 0.19 EUR | 0.31 EUR | 0 |
| 2025-02-18 | 0.34 EUR | 0.34 EUR | 0 |
| 2025-04-27 | 0.34 EUR | 0.34 EUR | 0 |
| 2025-04-28 | 0.34 EUR | 0.34 EUR | 0 |
| 2025-05-06 | 0.34 EUR | 0.34 EUR | 0 |
| 2025-05-12 | 0.34 EUR | 0.34 EUR | 0 |
| 2025-05-19 | 0.34 EUR | 0.34 EUR | 0 |
| 2025-05-28 | 0.34 EUR | 0.34 EUR | 0 |
| 2025-06-03 | 0.34 EUR | 0.34 EUR | 0 |
| 2025-06-10 | 0.33 EUR | 0.33 EUR | 0 |
| 2025-06-17 | 0.33 EUR | 0.33 EUR | 0 |
| 2025-06-23 | 0.33 EUR | 0.33 EUR | 1 |
| 2025-07-01 | 0.33 EUR | 0.33 EUR | 0 |
| 2025-07-08 | 0.32 EUR | 0.32 EUR | 0 |
| 2025-07-15 | 0.33 EUR | 0.33 EUR | 0 |
| 2025-07-22 | 0.33 EUR | 0.33 EUR | 0 |
| 2025-07-29 | 0.33 EUR | 0.33 EUR | 0 |
| 2025-08-05 | 0.33 EUR | 0.33 EUR | 0 |
| 2025-08-12 | 0.32 EUR | 0.32 EUR | 0 |
| 2025-08-18 | 0.32 EUR | 0.32 EUR | 0 |
| 2025-08-25 | 0.32 EUR | 0.32 EUR | 0 |
| 2025-09-02 | 0.32 EUR | 0.32 EUR | 0 |
| 2025-09-09 | 0.32 EUR | 0.32 EUR | 0 |
| 2025-09-15 | 0.31 EUR | 0.32 EUR | 0 |
| 2025-09-23 | 0.32 EUR | 0.32 EUR | 0 |
| 2025-09-29 | 0.32 EUR | 0.32 EUR | 0 |
| 2025-10-06 | 0.32 EUR | 0.32 EUR | 0 |
| 2025-10-13 | 0.32 EUR | 0.33 EUR | 0 |
| 2025-10-20 | 0.32 EUR | 0.32 EUR | 0 |
| 2025-10-27 | 0.32 EUR | 0.32 EUR | 0 |
| 2025-11-03 | 0.32 EUR | 0.32 EUR | 0 |
| 2025-11-10 | 0.31 EUR | 0.32 EUR | 0 |
| 2025-11-18 | 0.32 EUR | 0.32 EUR | 0 |
| 2025-11-24 | 0.32 EUR | 0.32 EUR | 0 |
| 2025-12-03 | 0.32 EUR | 0.32 EUR | 0 |
| 2025-12-08 | 0.32 EUR | 0.34 EUR | 0 |
| 2025-12-15 | 0.34 EUR | 0.35 EUR | 1 |
| 2025-12-22 | 0.33 EUR | 0.33 EUR | 0 |
| 2025-12-29 | 0.33 EUR | 0.33 EUR | 0 |
| 2026-01-01 | 0.33 EUR | 0.33 EUR | 0 |
| 2026-01-05 | 0.32 EUR | 0.32 EUR | 0 |
| 2026-01-13 | 0.32 EUR | 0.32 EUR | 0 |
| 2026-01-20 | 0.32 EUR | 0.32 EUR | 0 |
| 2026-01-26 | 0.31 EUR | 0.31 EUR | 0 |
| 2026-02-02 | 0.31 EUR | 0.31 EUR | 0 |
| 2026-02-09 | 0.31 EUR | 0.31 EUR | 0 |
| 2026-02-16 | 0.31 EUR | 0.31 EUR | 0 |
| 2026-02-23 | 0.30 EUR | 0.31 EUR | 0 |
| 2026-03-02 | 0.31 EUR | 0.31 EUR | 0 |
| 2026-03-10 | 0.31 EUR | 0.31 EUR | 0 |
| 2026-03-16 | 0.31 EUR | 0.31 EUR | 0 |
| 2026-04-02 | 0.31 EUR | 0.31 EUR | 1 |
| 2026-04-07 | 0.30 EUR | 0.30 EUR | 0 |
| 2026-04-14 | 1.07 EUR | 0.30 EUR | 0 |
| 2026-04-23 | 0.29 EUR | 0.29 EUR | 0 |
| 2026-04-30 | 0.29 EUR | 0.29 EUR | 0 |
| 2026-05-05 | 0.29 EUR | 0.29 EUR | 0 |
| 2026-05-14 | 0.29 EUR | 0.29 EUR | 0 |
| 2026-05-20 | 0.30 EUR | 0.31 EUR | 0 |
| 2026-05-25 | 0.30 EUR | 0.31 EUR | 0 |
| 2026-06-01 | 0.30 EUR | 0.32 EUR | 0 |
| 2026-06-08 | 0.31 EUR | 0.35 EUR | 0 |
| 2026-06-15 | 0.30 EUR | 0.33 EUR | 0 |
| 2026-06-23 | 0.31 EUR | 0.33 EUR | 0 |
| 2026-06-29 | 0.31 EUR | 0.31 EUR | 0 |
| 2026-07-06 | 0.31 EUR | 0.31 EUR | 0 |
| 2026-07-13 | 0.30 EUR | 0.30 EUR | 0 |
| 2026-07-20 | 0.30 EUR | 0.31 EUR | 0 |
| 2026-07-27 | 0.30 EUR | 0.32 EUR | 0 |
| 2026-08-03 | 0.30 EUR | 0.31 EUR | 0 |
| 2026-08-10 | 0.30 EUR | 0.30 EUR | 0 |
| 2026-08-17 | 0.31 EUR | 0.31 EUR | 0 |
| 2026-08-24 | 0.31 EUR | 0.31 EUR | 0 |
| 2026-09-01 | 0.31 EUR | 0.31 EUR | 1 |
Perguntas frequentes sobre Atordoar
Que tipo de carta é Atordoar?
Atordoar é uma Instantâneo carta em Magic: the Gathering MTG.
Qual é o efeito de Atordoar?
Alvo criatura não pode bloquear neste turno. Compre um card.
Qual é o preço de Atordoar?
Atordoar atualmente começa às € 0,31. Veja os preços ao vivo de vários vendedores na seção Onde comprar acima.
Qual é a coleção original de Atordoar?
Atordoar foi lançado pela primeira vez no conjunto Tempest, ilustrado por Terese Nielsen.
Qual é a legalidade de Atordoar?
A legalidade depende do formato do torneio - Atordoar pode ser legal em alguns formatos e banido ou restrito em outros. Veja a análise completa por formato na seção Legalidade acima.
Quais cartas são semelhantes a Atordoar?
Cartas similares a Atordoar incluir Onda de Indiferença, Entre no Enigma, Tática dos Renegados. Veja a lista completa na seção Cartas semelhantes acima.




Reações
0
0 Comentários
Seja o primeiro a comentar